Tracking 30922 objects as of 2-Jul-2025
HD Live streaming from Space Station
objects crossing your sky now

SCOUT B-1 DEB

Track SCOUT B-1 DEB now!
10-day predictions


NORAD ID: 8867
Int'l Code: 1976-047C
Perigee: 997.2 km
Apogee: 1,108.4 km
Inclination: 99.2 °
Period: 106.1 minutes
Semi major axis: 7423 km
RCS: 0.05 m2 (small)
Launch date: May 22, 1976
Source: United States (US)
Launch site: AIR FORCE WESTERN TEST RANGE (AFWTR)

Note: This is SATELLITE DEBRIS
Your satellite tracking list
ARIANE 5 R/B
Track 1 satellite(s)




NASA's NSSDC Master Catalog

Two Line Element Set (TLE):
1 08867U 76047C   25181.05034142  .00000054  00000-0  12934-3 0  9990
2 08867  99.2177  25.6745 0074880 109.2258  41.6890 13.57256654428094
Source of the keplerian elements: AFSPC